Middleton, WI

2:25 AM CDT on May 25, 2017 (GMT -0500)
Middleton

Weather History for KC29 - April, 2014

Change the Weather History Date:

Saturday, April 26, 2014

  Actual Average (KMSN) Record (KMSN)
Temperature  
Mean Temperature 46 °F -  
Max Temperature 55 °F 65 °F 84 °F (1962)
Min Temperature 36 °F 37 °F 25 °F (1980)
Degree Days  
Heating Degree Days 20    
Moisture  
Dew Point 32 °F    
Average Humidity 58    
Maximum Humidity 85    
Minimum Humidity 42    
Precipitation  
Precipitation 0.00 in - - ()
Sea Level Pressure  
Sea Level Pressure 29.98 in    
Wind  
Wind Speed 10 mph (NE)    
Max Wind Speed 18 mph    
Max Gust Speed 25 mph    
Visibility 10 miles    
Events      
Averages and records for this station are not official NWS values.
T = Trace of Precipitation, MM = Missing Value Source: NWS Daily Summary

Daily Weather History Graph

Daily Weather History Graph

Search for Another Location

Airport or City:

Trip Planner

Search our weather history database for the weather conditions in past years. The results will help you decide how hot, cold, wet, or windy it might be!

Date:

Astronomy

Apr. 26, 2014 Rise Set
Actual Time 5:58 AM CDT 7:53 PM CDT
Civil Twilight 5:28 AM CDT 8:24 PM CDT
Nautical Twilight 4:50 AM CDT 9:01 PM CDT
Astronomical Twilight 4:10 AM CDT 9:42 PM CDT
Moon 4:27 AM CDT (4/26) 5:18 PM CDT (4/26)
Length of Visible Light 14h 56m
Length of Day
13h 54m
Waning Crescent, 8% of the Moon is Illuminated
Apr 26
Waning Crescent
Apr 29
New
May 6
First Quarter
May 14
Full
May 21
Last Quarter

Hourly Weather History & Observations

Time (CDT) Temp. Windchill Dew Point Humidity Pressure Visibility Wind Dir Wind Speed Gust Speed Precip Events Conditions
12:15 AM 50.4 °F - 36.7 °F 59% 29.85 in 10.0 mi North 12.7 mph - N/A   Clear
12:35 AM 50.4 °F - 37.4 °F 61% 29.86 in 10.0 mi North 13.8 mph - N/A   Clear
12:50 AM 47.8 °F - 38.1 °F 69% 29.86 in 10.0 mi NNE 11.5 mph - N/A   Clear
1:15 AM 46.9 °F - 34.7 °F 62% 29.87 in 10.0 mi North 13.8 mph 18.4 mph N/A   Clear
1:35 AM 45.3 °F 44.0 °F 33.3 °F 63% 29.88 in 10.0 mi NNE 3.5 mph - N/A   Clear
1:55 AM 44.2 °F 41.8 °F 30.9 °F 60% 29.89 in 10.0 mi North 4.6 mph - N/A   Clear
2:15 AM 43.9 °F - 32.2 °F 63% 29.89 in 10.0 mi Calm Calm - N/A   Clear
2:35 AM 41.9 °F 39.0 °F 32.0 °F 68% 29.90 in 10.0 mi North 4.6 mph - N/A   Clear
2:50 AM 41.0 °F - 31.6 °F 69% 29.90 in 10.0 mi Calm Calm - N/A   Clear
3:10 AM 40.5 °F 37.3 °F 31.5 °F 70% 29.91 in 10.0 mi North 4.6 mph - N/A   Clear
3:30 AM 41.5 °F 37.8 °F 29.8 °F 63% 29.91 in 10.0 mi North 5.8 mph - N/A   Clear
3:55 AM 38.7 °F - 30.9 °F 74% 29.92 in 10.0 mi Calm Calm - N/A   Clear
4:15 AM 36.3 °F - 30.6 °F 80% 29.93 in 10.0 mi Calm Calm - N/A   Clear
4:30 AM 37.0 °F - 31.8 °F 81% 29.93 in 10.0 mi Calm Calm - N/A   Clear
4:55 AM 36.0 °F - 31.8 °F 85% 29.94 in 10.0 mi Calm Calm - N/A   Clear
5:10 AM 36.7 °F 32.0 °F 32.0 °F 83% 29.94 in 10.0 mi North 5.8 mph - N/A   Clear
5:30 AM 38.3 °F 34.8 °F 31.6 °F 77% 29.96 in 10.0 mi North 4.6 mph - N/A   Clear
5:55 AM 37.4 °F 32.1 °F 31.6 °F 80% 29.96 in 10.0 mi North 6.9 mph - N/A   Clear
6:15 AM 37.9 °F 33.5 °F 31.3 °F 77% 29.97 in 10.0 mi North 5.8 mph - N/A   Clear
6:35 AM 39.0 °F 32.3 °F 31.1 °F 73% 29.97 in 10.0 mi NNE 10.4 mph - N/A   Clear
6:55 AM 39.6 °F 34.7 °F 31.8 °F 74% 29.98 in 10.0 mi North 6.9 mph - N/A   Clear
7:15 AM 40.3 °F 34.4 °F 32.0 °F 72% 29.98 in 10.0 mi NNE 9.2 mph - N/A   Clear
7:35 AM 40.8 °F 32.9 °F 31.8 °F 70% 29.99 in 10.0 mi NNE 15.0 mph - N/A   Clear
7:55 AM 41.7 °F 34.4 °F 31.1 °F 66% 30.00 in 10.0 mi NNE 13.8 mph - N/A   Clear
8:15 AM 42.4 °F 34.7 °F 30.9 °F 64% 30.00 in 10.0 mi NNE 16.1 mph - N/A   Clear
8:35 AM 43.2 °F 36.2 °F 31.1 °F 62% 30.00 in 10.0 mi NE 13.8 mph - N/A   Clear
8:55 AM 44.6 °F 40.2 °F 31.8 °F 61% 30.01 in 10.0 mi NE 8.1 mph - N/A   Clear
9:15 AM 45.3 °F 40.6 °F 30.4 °F 56% 30.00 in 10.0 mi NE 9.2 mph 16.1 mph N/A   Clear
9:35 AM 46.2 °F 40.5 °F 30.4 °F 54% 30.00 in 10.0 mi NE 12.7 mph - N/A   Clear
9:55 AM 47.5 °F - 31.3 °F 53% 30.00 in 10.0 mi NE 11.5 mph 18.4 mph N/A   Clear
10:10 AM 47.5 °F - 30.6 °F 52% 30.00 in 10.0 mi NE 12.7 mph - N/A   Clear
10:50 AM 49.3 °F - 30.9 °F 49% 30.01 in 10.0 mi NE 12.7 mph 18.4 mph N/A   Clear
11:10 AM 50.2 °F - 30.4 °F 47% 30.01 in 10.0 mi NNE 12.7 mph - N/A   Clear
11:30 AM 50.9 °F - 30.9 °F 46% 30.02 in 10.0 mi East 10.4 mph 17.3 mph N/A   Clear
11:50 AM 51.6 °F - 30.4 °F 44% 30.02 in 10.0 mi NE 11.5 mph - N/A   Clear
12:10 PM 52.2 °F - 31.1 °F 45% 30.02 in 10.0 mi ENE 9.2 mph - N/A   Clear
12:30 PM 52.3 °F - 30.7 °F 44% 30.03 in 10.0 mi East 9.2 mph - N/A   Clear
12:50 PM 53.4 °F - 31.5 °F 43% 30.02 in 10.0 mi ENE 9.2 mph 17.3 mph N/A   Clear
1:10 PM 54.1 °F - 32.7 °F 44% 30.03 in 10.0 mi NE 12.7 mph 17.3 mph N/A   Clear
1:30 PM 54.0 °F - 32.0 °F 43% 30.02 in 10.0 mi ENE 8.1 mph 16.1 mph N/A   Clear
1:50 PM 55.0 °F - 32.0 °F 42% 30.02 in 10.0 mi East 11.5 mph 19.6 mph N/A   Clear
2:10 PM 54.1 °F - 31.6 °F 42% 30.02 in 10.0 mi NE 11.5 mph 17.3 mph N/A   Clear
2:30 PM 54.5 °F - 33.6 °F 45% 30.02 in 10.0 mi ENE 12.7 mph 19.6 mph N/A   Clear
2:50 PM 54.0 °F - 33.1 °F 45% 30.02 in 10.0 mi East 15.0 mph 21.9 mph N/A   Clear
3:10 PM 52.3 °F - 32.5 °F 47% 30.01 in 10.0 mi ENE 15.0 mph 21.9 mph N/A   Clear
3:30 PM 51.6 °F - 32.7 °F 49% 30.00 in 10.0 mi ENE 15.0 mph 20.7 mph N/A   Clear
3:50 PM 50.9 °F - 32.2 °F 49% 30.01 in 10.0 mi ENE 16.1 mph - N/A   Scattered Clouds
4:10 PM 52.2 °F - 32.4 °F 47% 30.01 in 10.0 mi East 12.7 mph 18.4 mph N/A   Overcast
4:30 PM 52.2 °F - 32.5 °F 47% 30.01 in 10.0 mi ENE 13.8 mph 20.7 mph N/A   Scattered Clouds
4:50 PM 52.0 °F - 32.5 °F 48% 30.01 in 10.0 mi ENE 12.7 mph 17.3 mph N/A   Clear
5:10 PM 51.6 °F - 32.2 °F 47% 30.02 in 10.0 mi ENE 15.0 mph - N/A   Clear
5:30 PM 51.8 °F - 32.9 °F 49% 30.01 in 10.0 mi ENE 12.7 mph 19.6 mph N/A   Clear
5:50 PM 50.4 °F - 32.7 °F 51% 30.00 in 10.0 mi ENE 16.1 mph 19.6 mph N/A   Clear
6:10 PM 50.2 °F - 33.1 °F 52% 30.00 in 10.0 mi ENE 12.7 mph - N/A   Clear
6:30 PM 49.1 °F - 32.4 °F 53% 30.00 in 10.0 mi East 12.7 mph - N/A   Clear
6:50 PM 48.2 °F - 33.1 °F 56% 30.00 in 10.0 mi East 16.1 mph - N/A   Clear
7:10 PM 48.4 °F - 32.5 °F 54% 30.00 in 10.0 mi East 13.8 mph 19.6 mph N/A   Clear
7:30 PM 47.3 °F - 32.9 °F 57% 30.01 in 10.0 mi East 15.0 mph 21.9 mph N/A   Clear
7:50 PM 46.4 °F 41.1 °F 32.0 °F 57% 30.01 in 10.0 mi East 11.5 mph - N/A   Clear
8:10 PM 45.9 °F 39.4 °F 32.0 °F 58% 30.03 in 10.0 mi East 15.0 mph 21.9 mph N/A   Clear
8:30 PM 45.5 °F 39.9 °F 32.0 °F 59% 30.02 in 10.0 mi East 11.5 mph 18.4 mph N/A   Clear
8:50 PM 44.8 °F 37.7 °F 32.0 °F 61% 30.02 in 10.0 mi East 16.1 mph - N/A   Clear
9:10 PM 44.1 °F 37.4 °F 30.4 °F 59% 30.03 in 10.0 mi East 13.8 mph 21.9 mph N/A   Clear
9:35 PM 43.7 °F 36.6 °F 29.1 °F 57% 30.03 in 10.0 mi East 15.0 mph 23.0 mph N/A   Clear
9:50 PM 43.3 °F 35.5 °F 29.3 °F 58% 30.04 in 10.0 mi East 17.3 mph 21.9 mph N/A   Clear
10:10 PM 42.8 °F 34.5 °F 29.3 °F 59% 30.03 in 10.0 mi East 18.4 mph 24.2 mph N/A   Clear
10:30 PM 42.4 °F 35.7 °F 28.8 °F 58% 30.03 in 10.0 mi East 12.7 mph 23.0 mph N/A   Clear
10:50 PM 41.9 °F 34.6 °F 28.6 °F 59% 30.03 in 10.0 mi ENE 13.8 mph 18.4 mph N/A   Clear
11:10 PM 41.9 °F 33.4 °F 27.3 °F 56% 30.02 in 10.0 mi ENE 18.4 mph 25.3 mph N/A   Clear
11:35 PM 41.9 °F 34.6 °F 27.9 °F 58% 30.04 in 10.0 mi ENE 13.8 mph 18.4 mph N/A   Mostly Cloudy
11:50 PM 41.9 °F 34.6 °F 27.9 °F 58% 30.05 in 10.0 mi ENE 13.8 mph 21.9 mph N/A   Overcast